Location: Newark
(47.3150°N, 5.1150°E)
Time: 05:52:25
(UTC+00:00)

Envisat - Pass Details

Date: 28 October 2019
Orbit: 764 x 766 km, 98.1° (Epoch: 13 November)

Event Time Altitude Azimuth Distance (km) Brightness Sun altitude
Rises 19:13:39 0° 219° (SW) 3,222 6.6 -28.3°
Reaches altitude 10° 19:17:20 10° 247° (WSW) 2,303 6.1 -28.9°
Maximum altitude 19:19:36 13° 273° (W) 2,108 6.1 -29.3°
Drops below altitude 10° 19:21:52 10° 300° (WNW) 2,310 6.3 -29.6°
Sets 19:25:36 0° 328° (NNW) 3,243 6.9 -30.2°
